Location: Caltech
(34.1382°N, 118.1253°W)
Time: 03:18:13
(UTC-07:00)

ARGOS - Visible Passes

Search period start: 28 May 2017 00:00
Search period end: 07 June 2017 00:00
Orbit: 821 x 834 km, 98.6° (Epoch: 27 May)

Date Brightness Start Highest point End Pass type
(mag) Time Alt. Az. Time Alt. Az. Time Alt. Az.
28 May 4.6 21:02:21 14° ESE 21:05:13 21° ENE 21:09:13 10° NNE visible
28 May 4.0 22:43:52 36° SW 22:45:07 42° W 22:50:15 10° NNW visible
29 May 5.0 20:44:07 10° E 20:46:54 14° ENE 20:49:41 10° NNE visible
29 May 3.4 22:25:02 46° SSW 22:26:30 65° WSW 22:31:55 10° NNW visible
30 May 3.1 22:06:12 45° SSE 22:07:58 84° ENE 22:13:25 10° NNW visible
31 May 3.4 21:47:22 34° SE 21:49:28 56° ENE 21:54:46 10° N visible
31 May 5.3 23:28:52 14° WSW 23:29:59 15° W 23:33:04 10° WNW visible
01 Jun 3.9 21:28:31 24° ESE 21:31:01 37° ENE 21:35:57 10° N visible
01 Jun 4.8 23:10:02 22° WSW 23:11:17 23° W 23:15:33 10° NW visible
02 Jun 4.4 21:09:42 16° ESE 21:12:36 25° ENE 21:16:57 10° NNE visible
02 Jun 4.3 22:51:12 31° SW 22:52:36 35° W 22:57:34 10° NNW visible
03 Jun 4.9 20:50:53 10° ESE 20:54:15 17° ENE 20:57:39 10° NNE visible
03 Jun 3.6 22:32:23 40° SSW 22:33:59 54° W 22:39:18 10° NNW visible
04 Jun 5.2 20:34:28 10° ENE 20:35:58 11° ENE 20:37:27 10° NE visible
04 Jun 3.1 22:13:32 42° S 22:15:26 82° WSW 22:20:53 10° NNW visible
05 Jun 3.2 21:54:43 36° SE 21:56:54 67° ENE 22:02:17 10° N visible
05 Jun 5.5 23:36:13 12° WSW 23:37:31 12° W 23:39:46 10° WNW visible
06 Jun 3.7 21:35:53 26° SE 21:38:26 44° ENE 21:43:33 10° N visible
06 Jun 5.0 23:17:24 18° WSW 23:18:48 20° W 23:22:40 10° NW visible
